[Iaude] MPEC T28: 2016 TU [a=1.68,e=0.59,i=16.0,H=27.1]

mpec at si.edu mpec at si.edu
Mon Oct 3 22:29:54 EDT 2016


M.P.E.C. 2016-T28                                Issued 2016 Oct. 4, 02:25 UT
 
     The Minor Planet Electronic Circulars contain information on unusual
         minor planets and routine data on comets.  They are published
    on behalf of Division F of the International Astronomical Union by the
          Minor Planet Center, Smithsonian Astrophysical Observatory,
                          Cambridge, MA 02138, U.S.A.

             Prepared using the Tamkin Foundation Computer Network

                              MPC at CFA.HARVARD.EDU
            URL http://www.minorplanetcenter.net/    ISSN 1523-6714


                                    2016 TU
 
Observations:
     K16T00U* C2016 10 02.16579 23 46 17.74 +02 53 11.5          19.8 VqET028G96
     K16T00U  C2016 10 02.16881 23 46 09.73 +02 55 14.9          19.2 VqET028G96
     K16T00U  C2016 10 02.17182 23 46 01.70 +02 57 19.5          19.7 VqET028G96
     K16T00U  C2016 10 02.17482 23 45 53.63 +02 59 23.6          19.1 VqET028G96
     K16T00U  C2016 10 02.22934423 43 21.92 +03 37 33.6          20.0 VtET028H01
     K16T00U  C2016 10 02.23684423 43 00.63 +03 42 57.7          19.2 VtET028H01
     K16T00U  C2016 10 02.24503 23 42 38.84 +03 49 03.0          20.2 VqET028I52
     K16T00U  C2016 10 02.24531923 42 36.44 +03 49 06.2          19.5 VtET028H01
     K16T00U  C2016 10 02.24545 23 42 37.61 +03 49 21.1          19.9 VqET028I52
     K16T00U  C2016 10 02.24586 23 42 36.40 +03 49 39.1          19.4 VqET028I52
     K16T00U  C2016 10 02.24999923 42 23.00 +03 52 30.8          19.4 VtET028H01
     K16T00U  C2016 10 02.25890 23 41 58.79 +03 59 11.8          19.2 VqET028G96
     K16T00U  C2016 10 02.26029 23 41 54.75 +04 00 12.9          19.4 VqET028G96
     K16T00U  C2016 10 02.26179 23 41 50.45 +04 01 18.8          19.9 VqET028G96
     K16T00U  C2016 10 02.26324 23 41 46.15 +04 02 23.6          19.2 VqET028G96
     K16T00U  C2016 10 02.28567 23 40 40.21 +04 19 04.5          19.2 VqET028G96
     K16T00U  C2016 10 02.29398 23 40 15.46 +04 25 20.4          19.2 VqET028G96
     K16T00U  C2016 10 02.30231 23 39 50.48 +04 31 39.3          19.5 VqET028G96
     K16T00U  C2016 10 02.36277 23 36 44.54 +05 18 43.6          19.2 VqET028G96
     K16T00U  C2016 10 02.36313 23 36 43.37 +05 19 01.2                qET028G96
     K16T00U  C2016 10 02.36331 23 36 42.85 +05 19 09.2          19.2 VqET028G96
     K16T00U KC2016 10 02.79469523 10 44.86 +12 10 13.9          19.0 RqET028J95
     K16T00U KC2016 10 02.79819223 10 28.80 +12 14 13.6          19.1 RqET028J95
     K16T00U KC2016 10 02.80553223 09 54.83 +12 22 39.1          19.0 RqET028J95
     K16T00U KC2016 10 02.80916223 09 37.88 +12 26 50.6          19.1 RqET028J95
     K16T00U HC2016 10 03.00760 22 52 16.88 +16 34 00.6                qET028204
     K16T00U HC2016 10 03.02276 22 50 48.79 +16 54 14.6                qET028204
     K16T00U KC2016 10 03.02711 22 50 23.29 +17 00 04.6          19   RqET028204
     K16T00U KC2016 10 03.86031620 42 45.90 +38 54 20.1          19.2 RqET028J95
     K16T00U KC2016 10 03.87134720 40 15.18 +39 10 05.2          19.4 RqET028J95
     K16T00U KC2016 10 03.87638220 39 06.12 +39 17 13.1          19.6 RqET028J95
     K16T00U KC2016 10 03.88133120 37 57.95 +39 24 09.9          19.1 RqET028J95
     K16T00U KC2016 10 03.88280 20 37 26.97 +39 27 11.9          19.0 RqET028104
     K16T00U KC2016 10 03.88313 20 37 22.28 +39 27 39.8          19.0 RqET028104
     K16T00U KC2016 10 03.88436 20 37 05.36 +39 29 22.4                qET028104
 
Observer details:
104 San Marcello Pistoiese.  Observer P. Bacci.  Measurers P. Bacci, L. Tesi,
    G. Fagioli.  0.60-m f/4 reflector + CCD.
204 Schiaparelli Observatory.  Observer L. Buzzi.  0.60-m f/4.64 reflector
    + CCD.
G96 Mt. Lemmon Survey.  Observer A. D. Grauer.  Measurers E. J. Christensen,
    D. C. Fuls, A. R. Gibbs, A. D. Grauer, J. A. Johnson, R. A. Kowalski,
    S. M. Larson, G. J. Leonard, R. G. Matheny, R. L. Seaman, F. C. Shelly.
    1.5-m reflector + 10K CCD.
H01 Magdalena Ridge Observatory, Socorro.  Observers W. H. Ryan, E. V. Ryan.
    Measurer W. H. Ryan.  2.4-m f/8.9 reflector + CCD.
I52 Steward Observatory, Mt. Lemmon Station.  Observer G. J. Leonard.
    Measurers E. J. Christensen, D. C. Fuls, A. R. Gibbs, A. D. Grauer,
    J. A. Johnson, R. A. Kowalski, S. M. Larson, G. J. Leonard, R. G. Matheny,
    R. L. Seaman, F. C. Shelly.  1.0-m reflector + CCD.
J95 Great Shefford.  Observer P. Birtwhistle.  0.40-m f/6.0 Schmidt-Cassegrain
    + CCD.
 
Orbital elements:
2016 TU                                                  Earth MOID = 0.0108 AU
Epoch 2016 July 31.0 TT = JDT 2457600.5                 MPC
M 308.24381              (2000.0)            P               Q
n   0.45329675     Peri.   82.58228     -0.01549931     -0.99902484
a   1.6783440      Node     8.63559     +0.77390146     -0.03816651
e   0.5858458      Incl.   15.98208     +0.63311634     +0.02219644
P   2.17           H   27.1           G   0.15           U   5
Residuals in seconds of arc
161002 G96  0.6-  0.1-    161002 G96  0.2+  0.1-    161002 J95  0.2-  0.4+
161002 G96  0.2-  0.7-    161002 G96  1.1+  0.5-    161003 204  1.2+  0.2+
161002 G96  0.2-  0.1+    161002 G96  0.0   0.2+    161003 204  0.9+  1.0+
161002 G96  0.7-  0.5+    161002 G96  0.4+  0.3-    161003 204  0.8+  0.7+
161002 H01  0.1-  0.1+    161002 G96  0.3+  0.2+    161003 J95  0.6+  0.3-
161002 H01  0.3-  0.1+    161002 G96  0.2+  0.2+    161003 J95  0.6-  0.4-
161002 I52  0.7+  0.2-    161002 G96  0.2+  0.3+    161003 J95  0.0   0.5+
161002 H01  0.0   0.2+    161002 G96  0.4-  0.7+    161003 J95  0.2-  0.4+
161002 I52  0.3+  0.5-    161002 G96  0.3+  0.1+    161003 104  0.8+  0.8-
161002 I52  0.2-  0.4-    161002 J95  0.4-  0.1+    161003 104  0.7-  0.4-
161002 H01  0.1+  0.2+    161002 J95  0.1+  0.0     161003 104  0.3+  0.0
161002 G96  0.2+  0.1+    161002 J95  0.3+  0.1-

Ephemeris:
2016 TU                  a,e,i = 1.68, 0.59, 16                  q = 0.6951
Date    TT    R. A. (2000) Decl.     Delta      r     Elong.  Phase     V
2016 09 04    01 08 21.7 -18 36 21   0.3267  1.2898   145.0    26.6    26.4
...
2016 09 19    01 07 46.6 -18 01 35   0.1573  1.1480   154.0    22.5    24.5
...
2016 09 27    00 53 57.7 -14 47 43   0.07262 1.0712   161.0    17.8    22.5
...
2016 10 03    22 53 22.1 +16 28 01   0.01509 1.0139   151.7    27.9    19.3
2016 10 04    20 10 40.3 +42 00 10   0.01208 1.0044   109.6    69.8    20.0
2016 10 05    16 36 44.6 +45 23 17   0.01670 0.9950    71.9   107.2    22.2
...
2016 10 11    13 52 41.2 +27 29 31   0.07478 0.9390    36.3   141.0    28.3
...
2016 10 19    13 35 26.1 +23 32 20   0.1588  0.8680    33.5   140.7    29.7
...
2016 11 03    13 30 19.0 +18 39 41   0.3285  0.7565    37.1   127.7    29.6

A. U. Tomatic                (C) Copyright 2016 MPC           M.P.E.C. 2016-T28




More information about the Iaude mailing list